Location: El Bakhil
(32.7726°N, 5.5387°W)
Time: 07:43:23
(UTC+00:00)

AO-73 - Pass Details

Date: 07 August 2021
Orbit: 581 x 661 km, 97.6° (Epoch: 27 September)

Event Time Altitude Azimuth Distance (km) Brightness Sun altitude
Rises 05:09:05 0° 10° (N) 2,976 ? -6.9°
Reaches altitude 10° 05:11:18 10° 9° (N) 2,070 ? -6.5°
Maximum altitude 05:15:50 80° 283° (WNW) 675 ? -5.6°
Drops below altitude 10° 05:20:22 10° 197° (SSW) 2,071 ? -4.7°
Sets 05:22:35 0° 196° (SSW) 2,979 ? -4.3°
